Wind_Speed
44 42 39 37 32 30 36 37 36 44 36 32 33 30 32 33 28 27 24 24 24 20 21 14 19 21 16 17 15 16 16 12 13 14 15 17 18 19 18 18 18 17 16 14 16 17 16 16 17
45 47 43 39 37 34 36 41 41 40 38 39 40 37 35 35 28 29 24 28 28 25 25 24 24 22 23 22 21 18 15 15 15 17 17 19 19 18 20 22 22 22 18 17 20 20 18 18 19
47 47 45 41 38 40 38 39 40 38 41 40 41 41 38 38 32 31 34 31 34 34 30 31 30 29 26 25 25 25 24 22 20 18 19 21 21 20 21 23 27 27 22 22 24 26 22 22 24
50 48 48 43 42 42 42 36 36 44 45 43 43 41 39 42 35 33 34 33 30 36 38 37 33 33 31 29 29 27 26 25 25 27 26 23 22 22 20 25 25 25 26 23 27 30 23 27 31
55 53 51 46 48 43 43 40 40 41 44 47 48 43 44 44 42 38 38 37 39 34 36 33 35 32 30 29 31 29 29 28 27 27 28 30 28 27 28 26 27 25 26 31 34 27 27 30 33
48 54 55 51 50 51 45 40 45 44 40 40 44 46 48 48 48 46 42 43 41 38 36 36 36 36 37 37 33 33 33 30 31 30 32 35 35 33 31 30 30 33 33 35 35 32 32 34 38
51 52 51 52 54 50 50 43 49 49 47 44 39 46 47 45 51 50 49 47 46 44 44 41 41 41 40 41 42 43 41 40 40 39 36 34 34 36 35 31 32 36 37 38 39 38 38 40 41
59 45 50 59 57 52 50 50 51 49 53 48 49 46 44 35 53 51 50 53 52 49 48 49 50 50 50 51 51 49 46 46 45 45 46 43 42 39 40 40 38 40 41 43 45 44 45 46 44
50 60 56 52 52 53 50 53 59 57 56 56 55 53 49 41 51 51 52 54 56 54 55 56 56 59 60 56 51 49 47 46 45 46 46 47 48 49 49 48 49 51 51 52 52 54 51 51 48
62 51 58 65 58 54 52 58 58 55 55 58 58 59 56 52 54 56 58 59 57 56 57 58 59 60 59 56 55 53 52 51 52 50 49 48 49 50 52 54 54 55 56 56 55 54 54 54 51
60 55 53 50 57 57 55 61 57 59 58 63 62 64 61 58 60 59 59 60 62 60 61 62 59 64 63 60 62 59 58 57 58 56 54 53 53 54 54 55 54 54 56 57 57 56 55 54 50
59 69 68 59 62 62 62 55 55 65 68 64 67 65 66 65 66 66 67 68 66 64 60 68 66 66 67 67 64 65 64 62 62 63 62 60 60 59 59 59 57 57 56 57 57 56 54 52 50
69 64 71 70 71 65 67 68 67 65 69 73 72 73 75 73 73 71 72 73 74 74 72 71 72 70 72 75 70 70 68 67 67 65 64 62 62 62 62 62 62 62 61 60 60 58 57 52 50
70 65 64 72 78 73 72 74 79 77 75 70 74 78 80 80 80 81 81 82 82 80 80 77 79 79 79 79 79 75 75 73 72 71 71 70 68 67 67 66 65 65 64 65 63 61 59 54 51
74 71 72 71 74 81 79 76 85 89 86 84 83 82 83 85 86 86 86 84 83 80 82 77 78 81 82 83 83 80 78 82 79 78 76 77 75 74 73 71 68 68 68 66 66 63 61 57 52
77 78 81 81 79 81 80 82 88 89 87 90 90 90 91 93 93 90 89 87 85 84 83 82 82 86 82 83 85 87 84 82 82 83 84 81 82 79 77 76 74 73 70 70 67 65 59 57 54
85 84 85 86 86 89 89 88 92 94 90 87 88 89 90 90 90 91 91 88 86 87 86 86 87 88 90 86 88 88 87 88 87 85 83 83 85 85 81 81 79 77 73 71 69 66 63 59 53
69 77 85 83 86 94 93 90 91 96 97 93 91 90 91 91 92 93 92 91 91 92 92 91 90 91 92 93 92 92 91 90 89 87 86 86 81 86 87 83 82 80 76 73 72 71 68 64 60
64 68 72 78 81 83 85 88 87 92 97 96 94 93 92 92 92 93 93 92 91 93 94 92 92 92 91 93 93 92 90 88 86 85 88 90 88 83 85 81 83 81 78 76 73 73 69 70 66
68 71 74 75 80 84 85 82 86 91 93 94 93 90 92 92 93 93 96 95 94 94 94 94 93 95 95 93 93 92 91 89 87 85 82 83 84 78 90 94 90 87 82 79 75 75 74 73 69
75 78 79 80 83 84 89 82 86 94 96 97 95 93 98 97 96 98 101 101 100 99 98 99 101 101 101 101 100 99 97 94 92 90 85 84 86 79 94 88 89 89 88 84 79 77 77 77 75
79 82 84 86 88 88 96 90 91 100 101 105 107 97 104 104 104 104 107 109 108 107 106 107 109 108 107 107 106 105 104 103 100 97 94 91 92 85 84 84 89 82 88 87 82 78 78 77 76
80 84 87 89 92 93 94 106 92 102 109 110 115 111 108 108 108 110 111 113 114 113 115 112 110 114 116 116 114 112 110 109 109 104 101 100 99 94 90 89 88 86 83 87 82 80 83 81 77
80 82 86 88 92 91 93 102 99 99 104 112 115 115 108 108 110 109 110 111 112 112 113 113 111 111 114 115 115 114 115 115 113 113 107 100 106 107 99 96 95 92 85 85 81 54 90 86 79
85 87 88 90 94 96 95 98 103 106 110 109 109 111 112 103 107 113 113 113 114 116 115 117 114 114 118 117 118 116 114 115 113 112 106 83 69 110 108 104 100 99 95 89 86 85 86 84 79
89 93 94 91 94 93 100 100 100 105 103 107 108 111 108 107 109 112 112 110 111 109 107 106 105 104 107 109 110 112 111 112 112 112 110 103 122 116 110 107 104 101 99 95 92 86 82 83 79
88 90 89 87 83 76 76 76 85 89 88 90 91 95 88 90 91 90 92 93 91 90 91 92 95 95 95 96 97 98 101 98 100 101 102 104 109 113 109 110 107 104 103 100 96 88 83 48 85
74 73 75 71 65 56 59 62 71 72 75 80 83 84 72 66 73 75 72 75 78 79 80 80 82 84 85 86 87 86 87 86 85 87 87 92 95 99 105 110 108 106 105 102 99 90 84 82 79
65 64 64 59 64 53 46 54 70 71 69 69 74 67 65 63 67 65 69 69 73 75 77 78 77 75 77 78 80 79 77 76 74 74 75 76 81 85 90 98 106 106 106 103 98 89 82 77 77
64 68 70 65 68 69 47 45 67 69 67 65 57 59 59 66 64 66 66 67 68 70 73 75 74 70 67 67 64 65 62 67 68 67 66 68 70 75 84 88 91 99 100 98 95 89 86 78 75
Wind_Direction
209 215 220 221 219 220 211 215 211 210 220 231 232 232 219 218 230 235 235 234 237 236 232 208 255 270 254 260 258 260 274 261 274 281 283 282 292 298 295 299 309 311 320 323 318 325 324 329 324
213 216 218 227 221 222 222 214 218 216 222 227 234 237 237 219 221 231 232 247 236 237 238 236 249 262 268 273 268 260 259 265 273 276 279 280 285 292 296 296 295 294 298 306 308 313 318 317 321
218 217 218 226 225 221 228 226 222 222 224 225 230 235 241 238 249 232 228 233 243 247 249 242 244 255 260 268 271 272 278 270 266 276 280 274 278 291 294 296 293 290 291 290 302 310 305 313 316
220 218 222 224 225 224 227 230 234 230 227 231 233 233 238 246 249 250 254 231 234 242 253 250 245 252 257 256 263 269 268 271 271 274 272 272 269 272 282 294 291 287 286 285 306 310 309 315 318
225 222 224 227 223 227 229 221 234 234 234 234 239 239 244 245 252 255 255 258 244 237 238 248 245 252 251 261 264 265 265 265 273 271 273 273 273 274 286 289 284 278 282 297 300 297 302 311 317
228 229 226 225 224 228 229 230 234 238 241 242 239 244 239 244 248 249 254 260 258 257 252 254 253 254 251 269 268 270 268 273 277 280 274 270 271 276 281 287 281 276 282 290 289 290 298 305 313
224 230 227 230 226 232 235 237 235 239 238 243 252 251 237 251 250 250 246 249 260 265 266 262 263 261 261 266 272 275 273 272 269 269 270 272 270 270 275 273 272 277 277 282 284 291 298 302 309
233 229 237 232 236 243 238 238 243 241 242 244 250 254 251 254 256 249 252 249 248 252 259 261 261 265 268 270 270 271 269 270 271 271 270 264 262 265 269 268 273 275 277 281 282 288 291 298 303
223 232 237 238 240 247 251 250 247 246 244 245 248 249 249 246 258 259 258 255 250 248 252 260 260 264 268 271 271 271 271 272 271 270 269 271 270 273 274 272 274 278 279 280 282 288 294 298 300
233 238 246 246 240 248 244 246 249 248 246 248 246 248 250 249 249 255 256 260 259 255 257 253 261 261 263 265 266 267 269 270 269 268 268 267 269 270 272 273 275 275 277 280 282 286 288 291 296
231 230 241 248 245 245 249 250 249 252 251 251 249 248 249 250 249 250 252 254 257 262 264 262 263 265 263 264 266 267 267 267 267 267 266 267 266 267 267 268 270 272 273 275 278 280 283 287 292
231 230 234 246 246 245 246 245 247 252 255 254 251 249 248 247 249 250 254 251 251 253 257 264 262 265 267 265 266 265 266 266 267 267 267 267 267 267 268 269 270 270 271 273 275 278 281 283 288
232 238 235 238 244 248 249 249 251 253 252 254 252 252 250 247 248 252 257 258 256 255 254 257 261 259 265 265 263 267 266 267 268 269 269 269 270 270 270 267 268 270 272 274 276 278 280 283 285
234 235 240 242 243 247 250 251 248 251 252 251 254 255 252 251 252 254 257 259 260 258 255 257 259 260 257 263 264 263 266 266 268 269 269 269 269 269 268 268 268 269 269 271 272 273 276 279 281
239 235 240 243 246 247 249 252 252 250 252 254 256 255 258 260 261 262 264 264 262 259 259 255 260 259 262 262 264 264 264 266 264 264 265 266 266 266 266 267 268 268 270 270 272 274 275 277 278
238 242 243 246 248 246 250 252 255 255 255 256 256 259 261 262 263 264 264 264 263 262 262 260 258 259 257 261 261 262 261 260 262 263 264 263 264 264 264 265 265 266 267 269 270 273 274 276 276
242 245 246 251 250 250 252 256 257 261 262 260 260 259 261 261 262 262 262 263 263 262 262 261 260 259 260 256 257 258 258 259 260 260 262 264 265 264 262 263 264 264 265 267 268 269 271 273 274
249 247 249 252 253 249 249 253 259 261 264 262 262 261 261 260 261 261 262 263 263 263 262 260 259 259 260 259 257 259 259 258 258 257 259 261 261 265 265 264 263 264 265 266 268 268 268 268 267
252 254 252 250 254 256 257 257 257 257 259 260 261 262 263 263 263 263 263 263 264 264 264 263 262 260 259 261 259 258 259 258 257 258 258 259 258 260 266 265 265 264 266 266 267 269 270 271 269
252 253 256 255 255 255 254 254 257 258 257 255 256 258 260 261 262 263 262 261 260 261 262 262 261 261 261 260 260 260 259 260 260 259 258 259 260 262 279 266 266 265 265 265 265 266 268 269 270
261 262 262 262 262 264 263 262 263 265 264 263 261 261 262 263 265 265 266 266 264 263 263 263 262 261 259 259 259 260 259 258 259 259 259 259 257 254 251 261 264 266 266 264 263 263 264 265 267
262 264 264 264 265 265 268 266 266 266 267 267 266 263 265 266 266 265 266 266 265 265 263 262 265 265 264 262 261 260 260 260 260 260 260 259 260 258 257 257 260 262 266 267 265 263 263 265 266
266 266 266 266 266 266 268 268 264 267 267 269 268 266 266 267 267 267 266 267 267 266 265 265 263 263 263 262 262 261 260 260 260 259 260 260 261 259 258 257 256 257 259 264 267 277 266 264 264
272 272 271 272 272 272 270 272 271 270 267 269 268 270 268 268 269 268 267 265 266 266 267 265 264 263 262 262 261 260 260 259 259 259 258 261 266 261 257 256 257 257 255 256 258 240 262 265 264
274 273 272 273 274 275 272 270 273 270 269 270 272 271 271 270 270 269 269 269 268 268 268 267 266 264 263 262 262 262 260 258 257 256 256 251 260 257 254 254 253 255 255 254 255 256 261 264 265
278 277 276 275 275 275 276 273 270 271 270 270 269 271 273 273 272 271 270 268 268 268 267 266 266 263 262 262 261 261 259 258 257 256 254 247 245 253 253 252 252 253 254 254 254 256 260 263 265
282 281 280 279 281 279 278 277 275 271 272 271 269 270 270 270 270 268 267 267 266 265 265 265 265 263 262 263 263 262 261 258 257 255 253 251 248 249 249 249 248 249 251 253 252 250 252 256 262
282 283 284 285 282 279 281 282 277 271 271 272 276 277 274 271 270 270 269 268 270 268 265 260 260 263 263 261 260 260 261 260 256 255 252 250 248 247 247 244 245 246 247 249 252 252 250 251 257
288 287 286 287 286 284 284 286 278 274 271 271 272 278 282 277 273 272 271 268 267 268 269 268 266 260 259 259 261 261 260 262 261 257 254 249 248 245 244 242 241 241 243 243 245 248 251 252 255
293 295 296 297 297 297 296 277 275 280 278 274 280 277 275 271 275 274 274 275 275 273 273 273 271 268 265 263 260 261 261 261 259 256 252 249 246 243 241 242 239 239 238 238 239 243 246 248 251
Height
10943 10947 10951 10955 10957 10959 10960 10962 10964 10966 10969 10968 10970 10972 10973 10979 10981 10984 10985 10988 10988 10990 10991 10992 10992 10995 10996 10998 10999 11000 11000 11001 11002 11003 11004 11004 11005 11005 11005 11004 11004 11003 11003 11003 11002 11001 10999 10998 10996
10937 10942 10947 10951 10955 10955 10955 10957 10960 10964 10964 10967 10967 10970 10971 10975 10978 10980 10982 10983 10985 10988 10989 10990 10990 10992 10994 10996 10997 10998 10998 10999 11000 11001 11002 11002 11002 11002 11002 11002 11001 11001 11002 11001 11001 11000 10997 10996 10994
10932 10937 10941 10947 10950 10949 10951 10954 10958 10964 10961 10963 10964 10967 10966 10971 10972 10975 10979 10981 10982 10984 10986 10987 10988 10989 10991 10993 10994 10995 10996 10996 10997 10998 10999 10998 10999 11000 10999 10999 10998 10998 10999 10999 10998 10998 10995 10993 10991
10927 10931 10936 10941 10944 10945 10948 10953 10954 10955 10958 10961 10961 10965 10966 10965 10968 10969 10971 10977 10979 10981 10981 10983 10985 10986 10987 10988 10989 10990 10992 10993 10994 10996 10996 10996 10996 10997 10996 10996 10996 10996 10996 10996 10995 10994 10992 10990 10987
10920 10925 10929 10934 10938 10941 10944 10949 10946 10950 10953 10954 10956 10962 10962 10963 10964 10965 10966 10969 10972 10976 10978 10978 10980 10982 10983 10985 10986 10987 10988 10989 10990 10991 10992 10992 10993 10993 10993 10993 10993 10993 10993 10992 10991 10990 10988 10985 10983
10915 10919 10923 10926 10931 10935 10939 10947 10943 10945 10948 10949 10952 10953 10956 10957 10959 10960 10961 10962 10966 10968 10971 10973 10975 10977 10978 10979 10981 10983 10984 10985 10985 10986 10987 10987 10987 10988 10988 10988 10989 10989 10988 10988 10987 10985 10982 10980 10978
10909 10916 10917 10921 10925 10928 10934 10942 10938 10944 10944 10945 10948 10942 10954 10956 10951 10953 10956 10958 10958 10960 10961 10965 10966 10969 10971 10973 10974 10976 10977 10978 10979 10980 10981 10981 10981 10981 10981 10982 10983 10983 10984 10983 10982 10980 10978 10976 10974
10906 10910 10911 10913 10916 10921 10929 10932 10933 10937 10940 10944 10938 10941 10947 10950 10938 10949 10951 10950 10952 10956 10957 10957 10959 10960 10962 10965 10967 10968 10970 10970 10971 10972 10972 10973 10974 10975 10976 10976 10975 10975 10977 10977 10976 10974 10973 10971 10968
10895 10902 10900 10902 10905 10917 10928 10926 10922 10929 10930 10934 10934 10936 10939 10946 10934 10939 10939 10941 10945 10949 10951 10951 10952 10953 10955 10955 10956 10958 10960 10961 10962 10964 10965 10965 10966 10967 10967 10968 10969 10968 10969 10968 10968 10967 10965 10963 10962
10893 10899 10895 10893 10906 10906 10913 10910 10911 10921 10923 10924 10927 10927 10931 10937 10934 10930 10929 10929 10934 10941 10942 10947 10944 10945 10946 10947 10947 10949 10950 10952 10953 10954 10956 10957 10957 10958 10958 10958 10960 10960 10960 10959 10959 10959 10958 10956 10955
10886 10889 10887 10894 10896 10895 10900 10904 10906 10909 10911 10912 10917 10919 10922 10926 10923 10921 10923 10923 10924 10929 10930 10931 10936 10929 10934 10938 10935 10940 10941 10942 10942 10944 10946 10948 10949 10949 10949 10949 10951 10950 10951 10950 10950 10950 10950 10949 10948
10874 10877 10880 10884 10883 10885 10888 10896 10899 10898 10898 10901 10904 10909 10912 10911 10910 10912 10910 10914 10916 10919 10924 10914 10921 10920 10920 10924 10926 10927 10929 10931 10932 10933 10935 10939 10940 10941 10941 10940 10942 10941 10942 10942 10941 10940 10941 10942 10940
10866 10871 10873 10874 10874 10877 10879 10885 10887 10889 10884 10885 10893 10895 10896 10898 10899 10899 10897 10900 10902 10906 10910 10909 10908 10913 10908 10906 10914 10913 10917 10918 10919 10922 10923 10925 10927 10929 10930 10931 10932 10931 10932 10932 10931 10932 10932 10934 10933
10859 10859 10862 10864 10862 10867 10869 10871 10872 10868 10873 10876 10876 10875 10879 10882 10883 10884 10886 10885 10886 10889 10892 10898 10897 10895 10898 10893 10896 10904 10902 10906 10906 10909 10909 10911 10914 10915 10915 10918 10919 10919 10922 10920 10921 10921 10921 10925 10924
10849 10851 10852 10852 10854 10855 10858 10857 10855 10856 10859 10860 10860 10862 10863 10862 10863 10864 10865 10868 10869 10872 10872 10886 10882 10880 10879 10883 10881 10886 10889 10884 10890 10892 10897 10894 10898 10901 10902 10904 10908 10909 10909 10911 10907 10912 10912 10914 10916
10837 10839 10840 10839 10842 10842 10843 10846 10840 10840 10845 10845 10846 10845 10845 10846 10846 10846 10845 10847 10850 10852 10854 10861 10865 10858 10868 10866 10864 10863 10871 10870 10870 10873 10877 10882 10879 10885 10889 10891 10894 10895 10898 10896 10899 10898 10901 10903 10905
10823 10828 10826 10822 10827 10826 10831 10832 10827 10820 10824 10828 10827 10830 10829 10828 10827 10825 10825 10829 10831 10831 10835 10839 10843 10844 10840 10852 10845 10846 10849 10853 10855 10856 10858 10862 10862 10865 10872 10873 10876 10880 10885 10886 10886 10889 10889 10890 10894
10808 10813 10811 10807 10806 10810 10814 10817 10810 10802 10799 10804 10806 10807 10807 10806 10807 10805 10807 10809 10811 10810 10812 10818 10824 10825 10820 10823 10828 10828 10832 10836 10839 10840 10843 10843 10849 10842 10851 10859 10861 10862 10871 10874 10873 10875 10876 10879 10880
10796 10794 10796 10793 10790 10791 10794 10797 10794 10788 10782 10784 10786 10785 10785 10784 10784 10785 10787 10789 10790 10788 10790 10797 10799 10799 10800 10797 10803 10809 10811 10813 10820 10825 10827 10831 10834 10839 10829 10840 10841 10851 10855 10858 10861 10859 10863 10863 10867
10782 10779 10778 10779 10774 10772 10771 10777 10773 10765 10760 10761 10763 10767 10762 10762 10762 10764 10761 10766 10769 10770 10771 10772 10776 10776 10777 10779 10779 10785 10790 10794 10799 10806 10812 10812 10819 10841 10834 10819 10822 10828 10839 10841 10848 10846 10847 10848 10851
10765 10762 10761 10759 10756 10754 10745 10760 10753 10740 10736 10735 10739 10744 10736 10740 10744 10743 10736 10739 10743 10748 10749 10749 10747 10750 10752 10755 10759 10761 10766 10773 10778 10784 10794 10798 10797 10819 10826 10808 10804 10811 10816 10823 10829 10833 10833 10833 10836
10750 10744 10741 10739 10735 10736 10720 10732 10736 10715 10714 10705 10698 10721 10715 10717 10719 10720 10714 10711 10712 10717 10722 10723 10719 10723 10726 10729 10734 10738 10742 10747 10755 10761 10768 10775 10775 10791 10796 10797 10789 10805 10800 10802 10811 10821 10820 10821 10823
10730 10726 10721 10718 10713 10713 10712 10684 10723 10698 10682 10683 10670 10677 10687 10690 10693 10688 10688 10683 10681 10684 10682 10692 10702 10695 10693 10696 10704 10709 10716 10721 10724 10737 10745 10751 10754 10766 10774 10777 10777 10784 10792 10788 10804 10807 10805 10808 10811
10707 10703 10698 10694 10686 10692 10686 10667 10678 10675 10665 10646 10639 10644 10659 10662 10658 10657 10655 10653 10652 10653 10652 10653 10663 10667 10663 10664 10667 10676 10682 10688 10698 10704 10722 10743 10747 10741 10746 10751 10755 10760 10773 10778 10789 10800 10783 10793 10797
10682 10677 10675 10673 10663 10659 10660 10651 10642 10631 10621 10625 10622 10618 10614 10631 10626 10621 10620 10622 10621 10621 10621 10615 10627 10630 10625 10630 10633 10641 10650 10654 10664 10672 10694 10747 10676 10698 10715 10721 10731 10737 10748 10761 10768 10777 10776 10775 10779
10657 10648 10645 10649 10639 10641 10616 10620 10614 10594 10604 10595 10589 10585 10591 10597 10594 10586 10585 10586 10583 10584 10589 10585 10589 10594 10592 10594 10598 10601 10613 10622 10628 10637 10653 10685 10682 10674 10682 10694 10705 10716 10725 10737 10745 10759 10764 10764 10765
10630 10623 10619 10619 10611 10612 10594 10588 10572 10571 10571 10561 10564 10560 10573 10567 10564 10558 10552 10553 10557 10556 10555 10557 10557 10562 10564 10563 10566 10572 10576 10589 10593 10602 10614 10625 10636 10642 10651 10661 10675 10689 10700 10711 10723 10742 10753 10778 10757
10609 10601 10593 10593 10589 10591 10578 10572 10550 10556 10542 10534 10531 10532 10547 10547 10535 10532 10536 10531 10527 10526 10528 10533 10534 10535 10536 10538 10538 10545 10546 10558 10567 10570 10581 10585 10598 10608 10619 10631 10645 10661 10677 10688 10701 10721 10734 10745 10748
10587 10583 10578 10579 10563 10564 10570 10557 10523 10523 10528 10527 10519 10525 10523 10518 10513 10515 10512 10513 10510 10509 10505 10504 10508 10511 10513 10515 10515 10521 10529 10534 10541 10546 10554 10564 10569 10581 10591 10599 10615 10631 10648 10668 10683 10700 10716 10727 10730
10568 10559 10553 10550 10547 10535 10546 10540 10507 10506 10508 10507 10517 10509 10505 10497 10496 10493 10492 10490 10489 10487 10483 10480 10481 10484 10488 10490 10497 10500 10511 10514 10517 10522 10529 10539 10548 10556 10565 10573 10590 10606 10625 10643 10661 10682 10697 10709 10714